DECAYED

STARLINK-1645, 47622 (Decayed)

Orbit data source: Space-Track

STARLINK-1645, 47622 was a payload satellite owned by SpaceX/Seattle (US) in LEO that was launched on Tue, 16 Feb 2021 UTC via an FALCON 9 launch vehicle from the Air Force Eastern Test Range (AFETR). Payload-class satellites include a variety of spacecraft equipped with specific instruments for various scientific and technological missions. These include communications satellites like Starlink; space stations such as the ISS; scientific satellites like the Hubble; Earth observation satellites from companies like Planet Labs, Umbra, and HawkEye 360; GPS; miniature CubeSats for education and research; and military/defense satellites.

Not visible in the next 10 days
Identifier
47622, 2021-012C
Orbit
Decayed
Country
Flag of USUS
Related business
Manufacturer
SpaceX/Seattle
Mission
Decayed Commercial Communications
Bus & Motor
STARLINK, Unknown motor
Mass
260 kg wet, ~248 kg dry
Launch date (UTC)
2021-02-16 (5 years ago)
Launch vehicle
FALCON 9
Launch site
Air Force Eastern Test Range (AFETR)
Object type
Payload
Rocket body
Debris
Shape & HBR
Box + 1 Pan, 10.1 m
Radar Cross Section
13.562 m², Large (>1 m²)

Expand to show TLE details & history
Last TLE update: 2 months ago

TLE from 2 months ago
0 STARLINK-1645
1 47622U 21012C   26104.56475671  .11469256  12484-4  53212-3 0  9994
2 47622  53.0219 199.3111 0006398 292.6922  67.3448 16.42874805286380
Epoch: 2026-04-14T13:33Z
TLE epoch observation values (Epoch: 2026-04-14T13:33:14.979Z)
Latitude
-0.00009°
Longitude
153.25943°
Altitude
157.485 km
Speed
7.814 km/s
True Right ascension
13h 17m 14s
True Declination
0° 00' 00"
Sunlit
Object was in full shadow at epoch
Visualization orbit readout
Latitude
Unknown
Longitude
Unknown
Altitude
Unknown
Speed
Unknown
Apparent Right ascension
Unknown
Apparent Declination
Unknown
Sunlit
N/A
Visualization observer readout
Local Sidereal Time
21:38:19
Azimuth
Unknown
Elevation
Unknown
Doppler factor
Unknown
Orbital elements
Apogee altitude
162.64 km
Perigee altitude
154.276 km
Semi-major axis
6,536.595 km
Eccentricity
0.00064
Inclination
53.0219°
RAAN
199.3111°
Arg. of periapsis
292.6922°
True anomaly
67.41248°
Mean anomaly
67.3448°
Eccentric anomaly
67.37864°
Mean motion
4.10692 °/min
Orbital period
87.66 mins
BSTAR
0.00053212
Loading maneuver chart data...
Computing Atmospheric mass density...

Documentation

Showing up to 5 results
|